This demonstration page uses our WeatherBlox Daily Observations layout. Learn more.

Left ArrowRight Arrow

39.92423, -83.80882

Hourly Observations for July 30, 2021

Temp ( °F °C ) Dew Point ( °F °C ) Humidity (%) Winds ( mph kmh ) Pressure ( in mb ) Visibility ( mi km ) Precip ( " mm )
12:56 am 00:56 Clear 73 23 N/A N/A NW 8 13 29.92 1013 10 16 0.01 0.25
1:47 am 01:47 Mostly Cloudy 73 23 N/A N/A NW 6 9 29.92 1013 10 16 N/A
1:56 am 01:56 Cloudy 73 23 N/A N/A NW 7 11 29.93 1014 10 16 N/A
2:56 am 02:56 Mostly Cloudy 72 22 N/A N/A NW 3 6 29.94 1014 10 16 0.01 0.25
3:03 am 03:03 Mostly Cloudy 72 22 N/A N/A NNW 3 6 29.92 1013 9 14 N/A
3:40 am 03:40 Mostly Cloudy 72 22 N/A N/A NNW 5 7 29.94 1014 9 14 N/A
3:48 am 03:48 Mostly Cloudy 72 22 N/A N/A N 5 7 29.93 1014 9 14 N/A
3:56 am 03:56 Cloudy 72 22 N/A N/A N 6 9 29.95 1014 9 14 N/A
4:25 am 04:25 Mostly Cloudy 70 21 N/A N/A NW 5 7 29.94 1014 8 13 N/A
4:51 am 04:51 Mostly Cloudy 70 21 N/A N/A NNW 3 6 29.95 1014 8 13 0.01 0.25
4:56 am 04:56 Cloudy 70 21 N/A N/A NNW 3 6 29.96 1014 7 11 0.01 0.25
5:09 am 05:09 Mostly Cloudy 70 21 N/A N/A NNW 5 7 29.95 1014 7 11 N/A
5:18 am 05:18 Cloudy 70 21 N/A N/A NNW 3 6 29.95 1014 7 11 N/A
5:32 am 05:32 Partly Cloudy 70 21 N/A N/A NNW 5 7 29.96 1014 7 11 N/A
5:56 am 05:56 Clear 68 20 N/A N/A E 6 9 29.98 1015 8 13 N/A
6:56 am 06:56 Mostly Cloudy 67 19.4 67 19.4 100 100 N N/A 30.00 1016 10 16 N/A
7:56 am 07:56 Mostly Sunny 70 21.1 70 21.1 100 100 N 5 7 30.03 1017 10 16 0.01 0.25
8:56 am 08:56 Sunny 71 21.7 68 20 90 90 NNE 8 13 30.04 1017 10 16 N/A
9:56 am 09:56 Mostly Sunny 74 23.3 67 19.4 79 79 NE 10 17 30.04 1017 10 16 N/A
10:56 am 10:56 Partly Cloudy 75 23.9 67 19.4 76 76 N 7 11 30.05 1018 10 16 N/A
11:06 am 11:06 Mostly Cloudy 75 24 66 19 74 74 N 6 9 30.03 1017 10 16 N/A
11:43 am 11:43 Mostly Cloudy 75 24 66 19 74 74 VRB 6 9 30.03 1017 10 16 0.01 0.25
11:52 am 11:52 Mostly Cloudy 75 24 66 19 74 74 NW 7 11 30.04 1017 10 16 0.01 0.25
11:56 am 11:56 Mostly Cloudy 75 23.9 68 20 79 79 NNW 8 13 30.06 1018 10 16 0.01 0.25
12:05 pm 12:05 Mostly Cloudy 75 24 68 20 78 78 NNW 7 11 30.04 1017 10 16 N/A
12:56 pm 12:56 Mostly Cloudy 78 25.6 66 18.9 67 67 NW 9 15 30.06 1018 10 16 N/A
1:56 pm 13:56 Sunny 79 26.1 66 18.9 65 65 NNW 9 15 30.05 1018 9 14 N/A
2:56 pm 14:56 Partly Cloudy 79 26.1 66 18.9 65 65 NNW 12 19 30.04 1017 10 16 0.01 0.25
3:56 pm 15:56 Sunny 78 25.6 65 18.3 64 64 NW 9 15 30.04 1017 7 11 N/A
4:56 pm 16:56 Sunny 79 26.1 63 17.2 58 58 NNW 10 17 30.04 1017 10 16 N/A
5:56 pm 17:56 Sunny 78 25.6 64 17.8 62 62 NNW 9 15 30.05 1018 10 16 N/A
6:56 pm 18:56 Sunny 77 25 60 15.6 56 56 NW 8 13 30.06 1018 10 16 0.01 0.25
7:56 pm 19:56 Sunny 73 22.8 63 17.2 71 71 NNW 6 9 30.04 1017 10 16 N/A
8:56 pm 20:56 Clear 71 21.7 65 18.3 81 81 N 6 9 30.04 1017 10 16 N/A
9:56 pm 21:56 Clear 69 20.6 63 17.2 81 81 N 6 9 30.06 1018 10 16 0.01 0.25
10:56 pm 22:56 Clear 68 20 65 18.3 90 90 N N/A 30.06 1018 10 16 N/A
11:56 pm 23:56 Clear 67 19.4 67 19.4 100 100 N N/A 30.08 1019 10 16 N/A

Powered by AerisWeather